RH
70 69 67 59 46 40 40 39 38 37 37 37 37 37 36 34 32 31 29 30 31 35 39 43 45 47 51 55 60 65 73 86 97 100 95 89 73 57 64 89 100 90 74 61 55 48 41 35 31 43 66 79 83 84 86 86 86 86 87 88 87 86 82
72 71 71 64 50 43 43 41 40 40 39 40 41 41 39 37 35 34 33 33 35 38 41 44 45 47 49 53 58 66 78 91 99 99 95 89 76 63 73 93 95 86 73 61 57 51 41 34 32 42 67 86 92 93 94 94 94 94 94 94 92 88 80
73 73 74 68 53 45 45 44 43 44 44 44 45 44 42 40 38 37 36 37 39 41 44 45 46 47 49 52 59 71 85 97 101 98 95 92 82 72 79 93 94 87 75 64 60 54 41 34 32 42 66 89 98 99 99 99 99 99 99 98 94 87 80
74 73 75 70 56 47 47 47 48 49 49 49 49 47 44 42 40 40 39 41 42 43 46 47 46 47 49 54 63 75 87 97 100 99 96 94 89 80 79 87 90 86 80 72 66 56 43 35 34 41 61 88 100 100 100 100 99 100 100 98 94 88 83
74 75 77 71 57 49 49 51 52 54 54 54 53 51 47 44 43 43 43 44 44 45 48 51 51 50 50 55 66 79 89 97 99 100 99 97 95 92 87 86 87 84 81 76 71 63 50 41 39 41 55 82 100 100 99 101 99 100 100 98 94 88 82
76 76 77 71 58 52 53 55 58 59 58 57 57 54 50 47 46 46 47 47 46 47 52 55 55 54 53 58 70 83 94 99 99 99 100 99 98 98 97 95 94 92 87 79 72 66 59 51 48 47 52 73 96 101 99 100 100 99 100 98 93 87 82
78 79 78 74 65 58 58 61 64 64 62 60 60 58 54 51 51 52 52 51 49 49 53 59 61 60 59 65 77 89 96 99 100 100 100 100 100 99 99 99 98 98 95 86 75 67 65 60 57 55 56 70 92 101 99 99 100 100 100 99 95 90 84
77 80 82 80 71 64 64 67 69 70 67 64 65 63 59 57 58 57 57 56 55 53 55 62 69 68 67 75 88 96 99 99 99 100 98 98 100 100 100 100 99 98 98 96 87 76 72 71 67 66 70 80 94 100 99 99 100 99 100 99 96 91 85
76 80 84 81 73 68 69 72 75 77 73 68 69 70 67 63 62 63 63 62 61 60 59 65 75 76 73 81 94 99 100 100 99 99 99 98 99 100 100 100 100 100 100 100 97 88 83 85 87 87 89 93 98 100 99 100 100 100 100 99 95 89 84
77 81 82 79 74 72 73 76 79 82 79 73 71 74 73 69 67 67 67 67 67 66 65 68 79 83 77 79 92 99 99 100 100 99 100 99 99 100 100 99 100 100 100 100 99 96 93 93 95 97 98 99 100 100 100 100 100 100 100 98 95 91 87
73 78 81 78 75 75 76 79 81 83 84 80 75 74 76 76 73 71 69 70 70 71 71 72 81 89 84 78 89 99 99 100 100 99 100 100 100 100 100 100 100 100 100 101 100 100 98 95 95 96 97 98 98 99 100 100 100 100 100 99 97 94 90
71 78 81 79 78 79 80 82 84 85 88 88 83 79 78 78 78 76 74 73 74 74 75 74 79 89 91 86 90 98 99 99 100 100 100 100 100 100 100 99 100 100 100 101 100 100 100 99 99 98 96 96 96 96 98 100 100 100 100 100 99 96 91
75 80 82 81 82 84 85 87 89 89 91 93 91 88 85 80 77 76 76 77 78 79 80 79 80 86 94 95 96 99 100 100 100 100 100 100 99 100 100 100 100 100 100 100 100 100 100 99 100 100 99 99 98 99 99 100 100 100 100 100 99 96 91
79 82 85 86 86 87 88 91 93 92 93 96 96 95 94 89 82 78 75 75 80 86 87 86 86 90 96 98 99 99 100 100 100 100 100 100 100 100 100 100 100 100 100 100 99 99 100 100 100 100 100 100 100 100 100 100 100 100 100 100 97 94 91
82 85 88 89 89 89 90 93 95 95 96 97 99 100 98 95 91 85 76 73 81 92 95 92 93 97 99 100 99 100 100 100 100 100 100 100 100 100 100 100 100 100 100 100 100 100 100 100 100 100 100 100 100 100 100 100 100 100 100 100 98 96 95
89 91 92 93 93 93 94 96 98 99 98 99 101 98 93 93 96 89 79 78 86 96 99 98 98 100 100 100 100 100 100 100 100 100 100 100 100 100 100 100 100 100 100 100 100 100 100 99 100 100 100 100 100 100 100 100 100 100 100 100 100 99 99
97 97 97 98 98 98 98 99 100 100 99 100 98 90 84 92 98 89 81 86 95 99 100 100 99 100 100 99 99 99 100 100 100 100 100 100 100 100 100 100 100 100 100 100 100 100 100 100 100 100 100 100 100 100 100 100 100 100 100 100 101 100 100
96 94 95 98 99 99 99 100 100 100 100 100 98 91 88 95 97 88 84 91 98 100 100 100 99 100 100 99 98 99 100 100 100 100 100 100 100 100 100 99 100 100 100 101 101 101 101 101 101 100 100 100 100 100 100 100 100 100 100 100 100 97 93
94 93 96 99 100 99 100 100 100 100 99 100 100 96 96 99 96 89 88 94 99 100 99 100 100 99 100 100 99 100 100 100 100 99 100 100 100 100 100 100 100 100 99 100 101 101 101 101 100 100 100 100 100 100 100 100 100 100 99 97 95 90 85
93 94 96 97 99 99 100 99 100 100 100 100 98 97 99 99 93 91 93 97 100 99 98 99 100 99 100 100 100 100 100 100 100 99 100 100 100 100 100 99 99 100 100 100 101 101 101 101 101 100 100 100 100 100 100 100 98 96 93 89 85 80 75
91 93 93 96 100 100 99 100 100 99 99 100 98 98 100 95 88 92 98 100 99 98 97 99 100 99 100 100 99 100 100 100 100 100 100 100 100 100 99 98 98 99 99 100 100 100 100 100 100 100 100 100 100 100 99 95 90 86 81 77 73 69 67
92 92 91 94 99 100 99 100 100 97 98 100 99 100 101 94 87 93 101 100 98 98 97 99 100 99 100 100 99 100 100 100 100 100 100 100 101 100 98 97 97 97 99 100 100 99 100 100 100 100 100 100 100 98 93 88 82 78 75 73 72 71 71
93 89 86 89 95 99 100 100 99 98 99 100 99 100 101 95 89 93 100 100 99 99 99 99 100 100 99 100 100 100 100 100 100 100 99 100 101 101 99 98 98 98 99 100 100 100 100 100 100 100 100 100 99 93 87 84 82 81 81 81 81 81 82
97 92 88 88 93 97 98 98 99 99 100 100 99 100 101 98 93 94 99 100 99 100 100 100 99 100 100 100 99 100 100 100 100 100 100 100 102 102 100 99 99 99 99 100 100 100 100 100 100 100 100 100 97 91 89 89 89 90 90 90 90 90 89
100 98 96 94 96 98 100 99 99 99 100 100 100 100 100 99 97 98 99 100 100 100 100 100 100 100 99 99 99 100 100 100 100 100 100 100 101 101 101 101 101 100 100 100 100 100 100 100 100 100 100 100 99 97 97 97 97 97 95 94 93 91 91
99 100 99 99 99 100 100 100 99 99 99 100 100 100 100 100 100 100 100 100 100 100 100 100 100 100 100 100 99 99 99 99 100 100 100 100 100 100 101 101 100 100 100 101 100 100 100 100 100 100 100 100 100 101 101 101 101 100 97 95 92 90 91
99 100 99 99 99 99 100 100 100 99 100 100 100 100 100 100 100 100 100 100 100 100 100 100 100 100 100 100 99 99 100 99 99 100 100 100 100 100 100 100 100 100 100 100 100 100 100 100 100 100 100 100 100 101 102 102 102 99 96 95 93 92 92
100 100 99 99 99 99 100 100 100 100 100 100 100 100 100 100 100 100 100 99 100 100 100 100 100 100 100 100 100 100 100 99 99 100 100 100 100 100 100 100 100 100 100 100 100 100 100 100 100 100 100 100 100 101 101 102 102 100 98 97 96 95 95
98 99 100 100 99 100 100 99 100 100 100 100 100 100 100 100 100 100 100 99 100 100 100 100 100 100 100 100 100 100 100 100 100 100 100 100 100 100 100 100 100 100 100 100 100 100 100 100 100 100 100 100 100 100 100 101 102 102 100 99 98 98 97
98 99 100 100 100 100 100 100 100 100 100 100 100 100 100 100 100 100 100 100 100 100 99 100 100 99 99 100 100 100 100 100 100 100 100 100 100 100 100 100 100 100 100 100 100 100 100 100 100 100 100 100 100 100 100 100 101 101 100 100 99 97 94
99 100 100 100 100 100 100 100 100 100 100 100 100 100 100 100 100 100 99 100 100 100 100 100 100 100 100 100 100 100 100 100 100 100 100 100 100 100 100 100 100 100 100 100 100 100 100 100 100 100 100 100 100 100 100 100 100 100 101 101 98 95 91
100 100 99 100 100 100 100 100 99 100 100 100 100 100 100 100 100 100 99 100 100 100 100 99 99 100 100 100 100 100 100 100 100 100 100 100 100 100 100 100 100 99 99 100 99 99 100 100 100 100 100 100 100 100 100 100 100 100 101 99 95 91 87
99 100 100 100 100 100 100 100 100 100 100 100 100 100 100 100 100 99 99 100 100 100 100 100 100 100 100 100 100 100 100 100 100 100 100 100 99 100 100 100 100 100 100 100 100 100 100 99 99 100 100 100 100 100 100 100 100 100 99 96 92 88 84
93 96 98 99 100 100 100 100 100 100 100 100 100 100 100 100 100 99 100 100 99 100 100 100 99 100 100 100 100 100 100 100 100 100 100 100 99 100 100 100 100 100 99 100 100 99 100 100 100 100 100 100 100 100 100 101 101 101 98 94 90 86 82
86 89 92 95 98 100 100 100 100 100 100 100 100 100 100 100 100 99 100 100 100 100 100 100 100 100 100 100 100 100 100 100 100 100 100 100 100 100 100 100 100 100 100 100 100 100 100 100 99 100 100 100 100 99 99 100 102 101 99 94 90 86 83
79 82 85 88 92 95 98 100 100 100 100 100 100 100 100 100 100 100 100 100 100 100 100 100 100 100 100 100 100 100 100 100 100 100 100 100 100 100 100 100 100 101 101 100 99 100 100 100 100 100 100 100 100 99 99 100 100 99 97 93 91 88 86
Wind_Speed
38 36 35 34 33 32 33 34 35 35 36 36 36 36 36 36 36 36 36 36 35 35 35 35 36 36 36 37 38 39 39 39 39 40 41 40 38 37 37 38 41 43 41 38 35 34 36 38 39 41 41 41 41 41 40 40 39 39 38 36 34 32 30
39 38 36 35 34 33 34 35 36 37 37 37 37 37 36 36 36 36 36 36 35 35 35 35 36 36 36 36 37 36 36 37 38 40 40 39 37 36 37 40 43 43 40 37 35 35 37 37 39 41 42 41 41 40 40 40 40 40 39 37 35 32 29
40 38 37 36 35 34 35 36 37 38 38 38 38 37 36 36 36 36 35 35 34 34 34 35 35 36 36 36 36 35 34 35 37 38 39 38 37 37 39 41 43 42 39 37 36 35 36 37 38 40 41 42 41 40 40 39 39 40 40 38 35 32 30
40 39 38 37 36 36 36 37 38 38 38 38 38 37 36 36 36 36 35 35 34 34 33 34 34 35 35 36 35 34 34 34 35 36 37 37 37 37 39 41 42 41 38 37 36 36 36 37 39 41 42 42 41 39 39 38 38 40 40 38 35 32 30
40 39 38 38 38 38 38 38 38 38 38 38 38 37 36 36 35 35 35 35 34 33 33 33 33 33 34 34 34 33 32 32 33 34 36 37 37 38 39 40 40 39 38 38 37 36 37 38 40 41 42 43 40 37 36 37 38 39 40 38 35 32 30
40 39 39 39 39 39 39 38 38 38 38 38 37 36 35 35 35 35 34 34 34 33 32 32 32 32 32 32 31 31 31 32 34 36 37 38 39 39 40 41 41 40 39 39 38 39 40 40 40 41 42 44 41 37 35 36 38 39 40 38 34 31 30
39 39 39 40 40 39 38 38 38 38 37 36 35 34 34 34 34 34 34 33 33 33 32 32 32 31 30 29 29 29 30 32 35 37 38 38 39 40 40 41 41 40 40 39 40 41 41 39 39 40 41 42 42 38 35 35 37 38 38 36 32 30 29
39 39 40 40 40 39 38 37 37 37 36 35 34 34 33 33 33 33 33 32 32 32 32 32 32 31 29 28 29 30 32 33 34 35 35 36 38 39 40 41 41 40 39 38 39 39 39 37 37 38 38 39 40 36 32 32 34 36 36 34 31 30 30
39 40 40 40 40 38 38 37 37 37 36 35 34 33 33 32 32 32 32 31 31 32 32 32 33 32 30 29 31 33 35 36 36 37 37 37 39 40 41 41 40 39 38 37 37 37 36 36 36 35 36 37 36 33 29 29 32 34 34 32 31 31 32
39 40 40 40 40 39 39 38 38 38 37 35 34 33 33 32 32 31 31 31 31 31 32 33 33 32 31 30 32 34 35 35 35 37 38 39 39 39 40 39 38 37 36 35 35 35 36 37 37 36 36 36 35 33 31 31 32 33 34 35 35 35 36
39 40 40 41 40 40 40 40 39 39 38 36 34 32 32 32 31 31 31 31 31 31 32 32 33 33 32 31 32 34 35 34 33 34 35 36 37 37 37 37 36 35 35 34 33 34 35 36 37 38 39 39 38 37 36 36 35 36 38 38 38 38 38
39 39 40 41 41 41 42 41 41 40 39 38 36 34 32 31 31 31 31 31 32 32 32 32 33 33 33 31 32 33 34 33 32 31 32 32 33 34 35 36 35 35 34 34 33 33 33 33 34 36 38 39 40 40 39 38 37 38 39 40 40 39 38
38 39 40 41 42 42 42 42 42 41 41 40 38 35 33 32 32 32 31 31 32 32 33 33 32 32 32 32 33 34 34 34 33 33 33 33 33 34 35 35 35 35 35 35 34 33 31 30 30 30 30 31 33 34 34 34 34 35 36 37 38 37 37
40 40 41 42 42 43 43 43 43 43 42 41 39 36 33 32 33 34 33 33 33 33 34 33 32 31 31 32 33 34 34 35 35 34 33 33 33 33 34 34 35 35 35 34 33 31 30 29 28 28 28 28 29 30 31 32 33 34 35 36 36 35 35
42 43 43 43 43 44 45 45 45 45 44 42 39 34 31 32 34 34 33 33 34 35 35 33 31 31 31 31 33 34 34 33 32 32 32 32 32 32 32 33 33 34 33 32 31 30 30 30 30 29 30 30 30 31 32 33 33 34 34 34 34 33 33
43 44 44 44 45 45 46 46 47 46 43 40 36 32 31 35 36 34 32 33 34 36 35 33 31 31 32 32 32 32 33 33 32 32 32 31 31 31 31 32 32 31 31 31 31 31 32 32 31 30 30 30 31 31 32 32 32 32 32 31 31 31 32
43 44 44 44 45 45 47 48 48 44 41 37 33 32 35 37 36 33 32 32 34 36 34 31 31 32 32 32 31 32 33 33 33 32 31 31 31 31 31 31 30 30 30 31 31 31 31 31 30 29 29 29 30 30 30 30 30 29 29 29 30 30 31
45 44 44 43 43 44 46 47 45 42 38 34 32 34 37 37 35 34 33 33 34 35 32 30 31 33 34 33 32 33 35 35 33 32 31 31 31 31 30 30 30 30 31 31 31 30 29 29 28 28 28 28 28 28 28 28 28 27 28 28 29 30 30
45 43 42 41 41 42 44 43 39 37 35 32 33 36 36 35 36 35 33 32 33 33 30 29 30 33 34 34 33 34 36 35 33 32 31 31 31 31 31 31 31 31 31 30 30 29 28 27 27 27 27 27 27 27 27 27 27 27 28 28 29 30 31
43 42 41 40 40 41 41 40 37 35 34 34 36 37 36 36 38 36 33 33 33 32 29 28 29 30 31 32 33 34 35 34 33 32 32 32 32 31 32 32 31 31 31 30 29 28 27 27 27 27 27 27 27 27 27 27 27 27 28 29 29 30 30
43 41 41 40 41 41 40 39 38 37 37 39 39 38 36 37 38 34 32 33 33 31 29 28 28 28 29 31 33 34 34 34 33 33 33 33 33 33 33 33 33 32 31 30 29 28 27 27 27 27 28 28 28 28 27 27 27 28 29 29 30 30 30
41 40 40 40 41 41 40 40 39 39 40 41 40 37 35 35 34 32 33 34 34 32 30 29 29 29 30 32 33 34 34 35 34 34 34 34 34 34 35 34 33 32 32 31 29 28 28 28 28 29 29 29 29 28 28 28 28 29 29 30 30 30 30
41 39 39 39 39 40 40 40 39 40 41 41 39 36 34 33 32 33 35 35 33 31 29 29 30 31 32 33 34 35 35 36 36 35 35 35 35 35 35 34 33 32 31 30 29 29 29 29 30 31 31 30 29 29 28 29 29 30 30 30 30 30 31
41 39 39 39 39 39 39 39 39 39 40 39 38 37 36 34 34 35 35 35 33 31 30 31 33 34 34 34 35 36 37 37 37 37 37 37 37 36 35 35 33 32 31 30 29 29 30 31 32 32 32 31 30 29 29 30 30 30 30 30 30 30 31
40 40 40 41 40 39 38 38 38 39 39 38 37 37 37 37 36 35 36 36 34 32 32 33 35 37 38 37 37 38 38 38 38 38 38 38 38 37 36 36 35 34 32 31 31 31 32 33 34 33 32 31 30 30 31 31 31 31 30 31 31 31 32
41 42 42 43 43 42 41 40 40 40 40 40 39 38 38 38 38 36 36 37 37 35 35 35 37 39 40 40 40 40 39 39 40 40 40 39 39 38 38 37 37 35 34 33 33 34 34 35 34 34 33 32 32 32 32 32 32 32 32 32 33 33 33
44 44 43 43 44 44 45 44 43 42 42 42 42 40 39 39 38 37 36 38 39 37 36 37 39 41 42 42 42 41 41 42 42 42 41 41 40 39 39 38 38 36 35 35 35 35 36 36 35 35 34 34 34 34 34 34 34 35 35 35 35 36 35
46 44 43 44 44 45 45 45 44 44 44 44 44 43 41 40 40 38 37 38 38 38 38 40 43 44 44 44 44 43 43 44 44 43 42 41 40 40 40 39 38 37 36 36 36 37 36 36 36 36 36 36 36 36 36 36 37 37 37 37 37 37 36
46 46 45 45 46 46 46 45 45 45 45 45 45 45 43 41 41 40 39 38 39 39 40 43 46 46 47 47 46 45 45 44 43 42 41 41 41 40 40 39 38 37 37 37 37 37 37 37 37 37 37 37 37 38 38 38 39 39 39 39 39 39 38
47 47 47 47 47 47 47 46 45 45 45 45 45 45 44 42 41 41 42 41 42 42 43 45 47 48 48 47 46 45 44 42 42 41 40 40 40 40 39 39 38 37 37 37 37 37 37 38 38 38 39 39 39 39 39 40 39 39 39 40 40 40 39
46 46 46 46 46 46 46 46 45 45 45 45 45 45 44 42 41 41 42 43 44 45 45 46 48 48 48 47 45 44 42 40 40 40 39 40 40 40 40 39 37 37 37 37 38 37 37 38 38 39 40 40 40 40 39 39 39 39 39 39 39 40 40
42 42 42 42 43 43 43 43 43 44 44 44 44 44 43 42 40 40 41 44 46 46 47 47 48 48 47 46 45 43 41 39 39 38 38 39 39 39 38 37 37 38 38 38 38 37 37 38 39 40 40 40 40 39 39 39 39 39 39 39 40 41 41
38 38 38 38 39 39 39 40 40 41 41 41 41 41 41 41 40 39 41 43 46 47 47 47 47 47 46 44 42 40 39 38 37 37 37 37 37 37 37 37 38 39 38 38 37 37 38 38 38 39 39 39 39 39 39 39 39 39 40 41 41 42 43
34 35 35 36 36 37 37 37 38 38 38 38 39 39 39 39 38 38 39 42 44 46 46 45 44 44 43 41 39 37 36 35 35 35 36 36 36 37 37 37 38 38 37 37 37 37 38 38 38 38 39 39 39 39 39 40 40 40 41 42 42 43 44
32 33 33 34 34 35 35 35 36 36 36 36 36 36 36 35 35 34 35 37 39 41 41 40 39 38 37 36 35 34 34 33 33 33 34 35 35 36 37 37 37 37 37 37 38 38 38 38 38 38 39 39 40 40 40 41 41 41 42 43 44 45 46
30 31 31 31 32 32 32 32 32 32 32 32 31 30 30 31 31 30 30 31 32 34 34 34 34 33 33 32 32 32 32 32 32 33 34 35 35 36 37 37 37 37 37 38 38 38 38 38 39 39 40 40 41 41 41 42 42 43 44 45 46 47 48
Wind_Direction
295 294 293 291 288 286 286 287 288 289 290 289 288 287 285 284 283 282 281 280 278 276 273 271 269 268 267 267 265 264 263 260 258 258 259 259 255 250 243 240 243 248 251 251 249 248 248 245 243 240 239 238 239 239 240 240 241 240 238 233 230 230 231
292 292 292 291 288 286 286 287 288 289 289 289 288 287 286 285 284 283 281 279 278 276 274 272 271 270 269 268 267 265 262 259 258 258 258 257 253 246 240 239 243 246 249 250 249 249 248 246 244 241 240 241 242 243 243 244 244 244 241 236 232 230 230
290 290 290 290 288 286 285 286 287 288 289 290 289 288 287 286 284 283 282 280 277 275 273 272 271 271 270 269 267 265 261 257 257 257 256 254 251 244 238 238 242 246 247 247 248 248 247 246 244 242 241 242 244 246 247 247 248 246 242 237 233 231 230
288 288 289 289 287 285 284 286 288 290 291 291 290 289 287 285 284 284 282 280 278 276 274 272 271 271 270 269 267 264 262 259 257 257 256 252 249 244 240 239 241 244 245 246 246 245 244 243 242 242 241 242 245 248 249 250 251 248 243 238 235 232 231
286 286 286 287 285 284 284 286 289 291 293 293 292 290 287 285 284 283 282 280 279 277 276 274 273 272 269 268 266 264 263 260 258 257 255 251 248 246 244 244 244 245 245 244 243 242 240 240 240 240 241 243 246 250 251 251 251 248 243 238 235 233 232
283 284 285 285 284 283 284 287 290 293 295 295 293 291 288 286 284 282 281 281 280 279 278 277 276 273 270 268 266 263 261 259 258 256 253 251 249 247 246 247 247 246 245 243 241 240 239 239 239 240 241 243 247 253 255 253 250 247 243 239 235 234 235
281 282 282 283 282 282 284 288 291 295 296 296 294 291 288 286 284 283 282 281 281 280 280 279 277 274 271 267 264 262 260 259 258 257 254 253 252 250 249 249 249 248 247 244 241 239 238 239 240 241 242 243 248 254 256 253 250 247 243 240 237 237 238
279 279 280 281 282 282 285 288 292 296 297 296 294 290 288 286 284 283 282 282 281 281 281 280 278 275 270 264 261 261 261 260 258 257 256 256 256 254 253 252 251 250 249 247 242 239 239 240 242 243 244 245 248 251 252 251 250 248 243 240 239 240 242
277 277 278 280 280 281 284 287 291 296 298 297 294 291 288 286 284 283 282 282 281 281 280 278 276 273 269 262 258 260 263 262 259 256 255 255 256 255 253 251 250 250 250 249 246 241 239 239 241 242 243 245 247 249 251 252 251 249 246 244 245 245 246
277 277 278 279 278 279 282 285 290 295 298 298 295 293 289 286 284 283 282 282 282 281 279 277 274 272 269 263 257 258 263 263 261 259 257 256 255 254 253 252 251 250 250 250 249 246 243 241 241 241 243 245 247 249 251 253 254 253 252 250 249 248 247
278 277 277 276 276 278 280 284 289 293 296 297 295 293 290 287 285 284 284 283 283 281 279 276 273 270 268 264 258 257 261 263 261 260 259 258 257 255 254 252 251 250 250 250 250 250 249 247 245 245 246 249 252 254 256 257 257 255 253 250 248 246 245
277 276 275 274 275 277 280 283 287 290 293 294 293 292 291 289 287 286 285 285 284 283 281 278 274 268 265 263 259 258 260 262 261 260 259 259 257 255 254 252 250 249 248 248 248 249 251 252 251 250 250 251 254 256 258 258 256 253 251 249 247 246 244
276 275 273 273 273 275 278 281 284 288 290 291 290 289 289 290 289 287 288 287 286 284 283 281 277 270 263 260 259 259 260 261 262 261 259 258 256 253 251 250 249 248 247 247 248 249 250 252 252 251 251 251 252 253 254 254 253 251 250 249 248 247 246
275 274 274 273 273 275 277 279 282 284 286 288 287 286 286 289 290 288 288 289 288 286 284 280 275 270 263 259 259 259 259 260 259 258 256 254 252 251 251 249 248 248 248 248 248 248 249 249 249 250 252 253 254 254 254 254 253 252 251 250 250 249 248
276 276 275 275 274 276 277 278 280 281 283 286 285 283 286 292 291 288 287 288 288 286 282 276 269 265 262 261 261 261 260 259 258 256 254 253 251 250 250 250 249 249 248 247 246 247 249 251 252 255 256 256 256 255 255 254 253 251 250 250 250 249 249
278 278 278 277 277 277 277 278 279 280 282 284 285 288 294 296 292 288 287 288 287 283 279 272 264 260 260 261 262 261 260 260 258 256 255 253 251 249 249 249 248 247 246 245 246 248 251 253 255 256 257 256 256 255 253 252 250 249 249 249 249 249 249
280 280 280 280 279 278 278 279 279 279 281 283 287 295 299 296 294 292 290 289 286 281 276 269 260 257 257 260 262 261 259 259 257 254 253 251 249 248 248 247 245 244 245 246 248 251 252 253 254 255 255 255 254 252 251 249 248 247 248 248 249 250 251
280 279 279 280 281 281 281 281 280 280 281 281 288 297 297 294 295 295 292 288 284 279 274 266 260 257 255 256 259 260 258 256 254 251 250 249 247 246 245 243 242 243 246 248 250 251 252 253 253 254 253 252 250 248 247 246 246 246 246 247 248 250 251
282 283 283 284 286 286 285 282 281 282 282 283 291 295 292 291 295 296 291 287 283 278 271 264 261 260 257 256 258 260 258 255 251 248 247 246 245 244 242 241 242 245 247 249 249 250 250 250 250 250 249 248 247 246 245 245 245 245 245 246 247 249 251
284 285 285 286 288 289 288 286 286 288 287 288 292 290 287 291 297 295 288 283 280 276 268 261 259 259 258 258 260 260 258 254 250 247 246 246 244 243 241 241 243 246 247 248 248 248 248 248 247 247 246 245 245 245 245 245 246 246 247 247 248 249 251
283 284 285 286 288 288 288 288 289 291 290 289 288 284 284 292 297 292 283 279 277 272 264 258 257 257 257 257 258 257 255 252 248 246 245 245 244 242 242 242 243 245 246 246 247 247 247 247 247 246 246 245 245 245 246 246 247 247 248 249 250 251 253
283 283 285 286 288 288 288 288 289 290 288 285 281 279 283 291 292 287 280 275 274 271 262 256 255 255 254 254 254 254 253 250 246 244 243 243 243 242 243 244 245 246 246 246 247 247 248 248 247 246 246 245 245 245 246 247 248 248 250 251 252 254 256
281 282 284 286 286 286 287 287 287 288 288 285 280 280 286 289 286 283 279 273 271 269 261 253 252 252 252 252 252 252 251 249 246 243 241 242 243 243 244 245 245 246 246 247 248 248 249 249 248 247 246 245 245 246 246 248 249 250 252 254 255 257 259
279 280 284 285 284 284 285 285 284 285 287 287 283 282 286 287 283 281 277 269 265 264 257 251 250 250 249 250 249 249 248 247 246 244 243 243 244 244 244 245 246 246 247 248 249 250 250 250 249 248 248 247 247 248 248 249 250 252 254 256 258 260 262
282 282 283 284 284 284 284 284 284 284 286 287 286 285 286 285 283 281 275 264 259 258 254 250 250 249 248 247 246 245 246 246 247 246 245 245 244 243 244 245 246 247 248 249 250 251 251 251 251 251 250 250 249 249 250 251 252 254 256 258 259 260 262
285 283 283 283 283 283 282 282 282 282 283 284 285 286 286 285 283 281 273 261 255 253 252 250 250 250 248 247 246 246 245 244 244 244 244 243 243 243 244 245 246 247 248 248 249 251 251 252 253 253 252 251 251 251 252 253 255 256 258 259 259 260 262
284 283 283 282 282 282 281 281 280 280 280 280 281 283 284 283 282 279 272 261 254 252 252 251 250 250 249 248 248 247 245 243 242 242 241 241 242 243 244 245 245 245 246 247 249 251 252 253 253 253 253 252 253 253 255 256 257 259 260 260 261 262 265
283 283 283 282 281 282 281 280 279 278 276 275 275 277 279 279 278 276 270 259 252 251 252 251 250 250 249 248 247 246 244 243 242 242 241 241 243 244 246 246 246 247 247 248 249 251 252 253 253 253 253 254 255 256 257 259 260 261 262 263 264 266 269
281 281 281 280 280 280 281 280 278 276 274 273 274 274 275 276 275 274 267 256 249 248 249 249 249 249 249 248 246 245 243 243 243 242 243 244 245 247 248 248 248 249 249 250 251 251 252 253 253 254 254 255 256 257 258 260 262 263 264 265 267 269 271
280 279 278 278 278 278 278 278 277 275 274 273 273 273 273 272 272 271 266 257 248 244 245 246 247 247 247 245 244 243 242 242 243 243 245 246 247 249 250 250 250 251 252 252 253 253 253 254 254 254 255 256 257 258 259 261 262 264 265 267 269 271 273
280 279 278 277 277 277 276 276 275 274 273 272 272 272 271 271 270 268 264 256 248 242 241 243 244 244 244 242 241 240 240 241 242 244 245 247 248 249 250 251 252 253 253 253 253 253 254 254 254 255 255 256 257 259 260 262 263 265 267 269 271 274 276
282 281 281 280 279 278 277 276 275 274 273 272 271 271 271 270 268 265 260 253 247 243 240 240 241 242 242 241 240 239 239 240 242 244 246 248 249 251 253 254 255 255 254 254 255 255 255 255 255 256 256 257 259 261 262 263 265 267 269 271 273 275 277
284 283 282 282 281 280 279 278 277 275 274 272 272 271 270 268 266 261 256 251 247 243 240 239 239 239 240 240 240 240 241 243 245 247 249 251 253 255 256 257 257 258 258 259 259 259 259 259 258 258 258 259 260 262 263 265 266 268 270 272 274 276 278
286 284 283 283 282 281 280 279 278 277 275 273 272 270 268 266 263 258 254 250 246 242 240 239 239 240 242 243 244 246 248 249 251 252 254 255 256 258 259 260 261 263 264 265 265 264 264 263 262 261 260 260 261 262 264 266 268 270 272 274 276 278 280
288 287 286 285 284 283 281 280 278 277 275 274 272 270 268 265 261 257 253 251 248 245 243 243 243 245 246 248 249 250 251 252 253 254 255 256 257 258 260 261 263 265 266 266 266 266 266 265 264 263 262 263 263 265 266 268 270 272 275 277 279 280 281
293 291 290 288 287 285 283 281 279 277 275 274 273 271 268 264 259 254 251 248 247 247 247 247 248 249 250 250 251 251 251 251 251 252 253 254 255 257 258 260 261 262 263 263 263 264 264 263 263 263 263 264 266 268 269 271 273 275 277 279 280 281 282